Location: *
(24.1434°N, 56.8729°E)
Time: 05:39:30
(UTC+00:00)

DMSP B5D2-2 - Pass Details

Date: 09 April 2020
Orbit: 791 x 805 km, 98.3° (Epoch: 27 May)

Event Time Altitude Azimuth Distance (km) Brightness Sun altitude
Rises 15:43:26 0° 21° (NNE) 3,294 7.2 -16.7°
Reaches altitude 10° 15:45:52 10° 28° (NNE) 2,364 6.4 -17.3°
Maximum altitude 15:50:50 44° 100° (E) 1,093 4.3 -18.3°
Drops below altitude 10° 15:55:48 10° 172° (S) 2,364 6.3 -19.4°
Sets 15:58:13 0° 178° (S) 3,294 7.1 -19.9°
